Simultaneous Nadir Overpasses (SNOs) Predictions

Prediction of SNOs between AQUA and TERRA Satellite Orbit:

Table of predicted SNOs for the next 14.0 days since TLE Epoch: 3/15/2025
Index Date (AQUA) Time (AQUA) Lat,Lon (AQUA) SZA (AQUA ) Date (TERRA) Time (TERRA) Lat,Lon (TERRA) SZA (TERRA ) Distance(km) Time Diff (sec)
1 03/26/2025 10:56:22 -76.46,-162.84 106.02 03/26/2025 10:55:18 -76.42,-166.35 106.02 91.72 64
2 03/26/2025 11:45:41 76.47, 4.82 73.98 03/26/2025 11:44:37 76.44, 1.36 73.98 90.03 64
3 03/26/2025 12:35:01 -76.54, 172.22 105.96 03/26/2025 12:33:55 -76.52, 169.31 105.95 75.35 66
4 03/26/2025 13:24:20 76.55, -20.13 74.04 03/26/2025 13:23:14 76.54, -22.97 74.05 73.60 66
5 03/26/2025 14:13:39 -76.58, 147.44 105.95 03/26/2025 14:12:33 -76.58, 144.82 105.93 67.65 66
6 03/26/2025 15:02:58 76.59, -44.91 74.05 03/26/2025 15:01:52 76.59, -47.47 74.08 65.89 66
7 03/26/2025 15:52:18 -76.66, 122.49 105.89 03/26/2025 15:51:10 -76.68, 120.49 105.86 51.36 68
8 03/26/2025 16:41:37 76.67, -69.86 74.10 03/26/2025 16:40:29 76.69, -71.79 74.14 49.56 68
9 03/26/2025 17:30:57 -76.75, 97.53 105.84 03/26/2025 17:29:48 -76.73, 96.00 105.84 39.31 69
10 03/26/2025 18:20:16 76.75, -94.82 74.16 03/26/2025 18:19:07 76.74, -96.28 74.17 37.38 69
11 03/26/2025 19:09:36 -76.83, 72.58 105.78 03/26/2025 19:08:25 -76.83, 71.67 105.77 22.93 71
12 03/26/2025 19:58:55 76.84,-119.78 74.22 03/26/2025 19:57:44 76.84,-120.60 74.24 20.99 71
13 03/26/2025 20:48:15 -76.91, 47.62 105.72 03/26/2025 20:47:03 -76.88, 47.19 105.75 11.45 72
14 03/26/2025 21:37:34 76.92,-144.74 74.28 03/26/2025 21:36:22 76.90,-145.09 74.26 9.24 72
15 03/26/2025 22:26:53 -76.95, 22.83 105.71 03/26/2025 22:25:40 -76.98, 22.87 105.68 3.47 73
16 03/26/2025 23:16:12 76.96,-169.53 74.29 03/26/2025 23:15:00 76.95,-169.57 74.28 1.53 72
17 03/27/2025 00:05:30 -76.94, -1.79 105.75 03/27/2025 00:04:20 -76.93, -1.95 105.75 4.12 70
18 03/27/2025 00:54:49 76.95, 165.86 74.25 03/27/2025 00:53:39 76.95, 165.77 74.26 2.10 70
19 03/27/2025 01:44:08 -76.97, -26.58 105.74 03/27/2025 01:42:58 -76.98, -26.43 105.72 3.79 70
20 03/27/2025 02:33:27 76.98, 141.07 74.26 03/27/2025 02:32:18 76.95, 141.12 74.24 3.51 69
21 03/27/2025 03:22:45 -76.96, -51.19 105.77 03/27/2025 03:21:38 -76.94, -51.25 105.79 3.03 67
22 03/27/2025 04:12:04 76.97, 116.45 74.23 03/27/2025 04:10:57 76.96, 116.47 74.21 1.79 67
23 03/27/2025 05:01:22 -76.95, -75.81 105.81 03/27/2025 05:00:17 -76.94, -75.91 105.82 2.73 65
24 03/27/2025 05:50:41 76.96, 91.84 74.19 03/27/2025 05:49:36 76.96, 91.82 74.19 0.49 65
25 03/27/2025 06:39:59 -76.94,-100.42 105.85 03/27/2025 06:38:56 -76.95,-100.56 105.84 3.45 63
26 03/27/2025 07:29:18 76.95, 67.22 74.15 03/27/2025 07:28:15 76.96, 67.17 74.17 1.84 63
27 03/27/2025 08:18:37 -76.98,-125.21 105.84 03/27/2025 08:17:35 -76.95,-125.21 105.87 3.32 62
28 03/27/2025 09:07:56 76.99, 42.43 74.16 03/27/2025 09:06:54 76.97, 42.51 74.14 3.28 62
29 03/27/2025 09:57:14 -76.97,-149.83 105.87 03/27/2025 09:56:14 -76.95,-149.86 105.89 2.06 60
30 03/27/2025 10:46:33 76.98, 17.81 74.13 03/27/2025 10:45:33 76.97, 17.86 74.12 1.61 60
31 03/27/2025 11:35:51 -76.96,-174.45 105.91 03/27/2025 11:34:53 -76.96,-174.52 105.91 1.83 58
32 03/27/2025 12:25:10 76.97, -6.80 74.09 03/27/2025 12:24:12 76.97, -6.79 74.09 0.49 58
33 03/27/2025 13:14:28 -76.95, 160.94 105.95 03/27/2025 13:13:32 -76.96, 160.83 105.94 2.87 56
34 03/27/2025 14:03:47 76.96, -31.42 74.05 03/27/2025 14:02:51 76.98, -31.45 74.07 1.90 56
35 03/27/2025 14:53:06 -76.99, 136.14 105.94 03/27/2025 14:52:11 -76.96, 136.18 105.96 2.86 55
36 03/27/2025 15:42:25 77.00, -56.22 74.06 03/27/2025 15:41:30 76.98, -56.10 74.05 3.52 55
37 03/27/2025 16:31:43 -76.98, 111.53 105.97 03/27/2025 16:30:50 -76.97, 111.52 105.98 1.35 53
38 03/27/2025 17:21:02 76.99, -80.83 74.03 03/27/2025 17:20:09 76.98, -80.75 74.02 2.09 53
39 03/27/2025 18:10:20 -76.97, 86.91 106.01 03/27/2025 18:09:29 -76.97, 86.87 106.01 0.99 51
40 03/27/2025 18:59:39 76.98,-105.45 73.99 03/27/2025 18:58:48 76.98,-105.41 74.00 1.36 51
41 03/27/2025 19:48:57 -76.96, 62.29 106.05 03/27/2025 19:48:08 -76.97, 62.22 106.03 2.36 49
42 03/27/2025 20:38:16 76.97,-130.07 73.95 03/27/2025 20:37:27 76.99,-130.06 73.97 2.17 49
43 03/27/2025 21:27:35 -77.00, 37.50 106.04 03/27/2025 21:26:47 -76.98, 37.56 106.06 2.88 48
44 03/27/2025 22:16:53 76.96,-154.69 73.92 03/27/2025 22:16:06 76.99,-154.71 73.95 3.57 47
45 03/27/2025 23:06:12 -76.99, 12.88 106.07 03/27/2025 23:05:26 -76.98, 12.91 106.08 1.27 46
46 03/27/2025 23:55:31 77.00,-179.48 73.93 03/27/2025 23:54:45 76.99,-179.37 73.93 2.88 46
47 03/28/2025 00:44:49 -76.98, -11.74 106.11 03/28/2025 00:44:05 -76.98, -11.74 106.10 0.34 44
48 03/28/2025 01:34:08 76.99, 155.90 73.89 03/28/2025 01:33:24 77.00, 155.98 73.90 2.22 44
49 03/28/2025 02:23:26 -76.97, -36.36 106.14 03/28/2025 02:22:44 -76.98, -36.40 106.13 1.92 42
50 03/28/2025 03:12:45 76.98, 131.28 73.86 03/28/2025 03:12:03 77.00, 131.33 73.88 2.56 42
51 03/28/2025 04:02:04 -77.01, -61.15 106.13 03/28/2025 04:01:23 -76.99, -61.05 106.15 3.36 41
52 03/28/2025 04:51:22 76.97, 106.66 73.82 03/28/2025 04:50:42 77.00, 106.67 73.85 3.61 40
53 03/28/2025 05:40:41 -77.00, -85.77 106.17 03/28/2025 05:40:02 -76.99, -85.70 106.18 1.89 39
54 03/28/2025 06:30:00 77.01, 81.87 73.83 03/28/2025 06:29:21 77.00, 82.02 73.83 3.80 39
55 03/28/2025 07:19:17 -76.99,-110.39 106.20 03/28/2025 07:18:40 -76.99,-110.36 106.20 0.88 37
56 03/28/2025 08:08:36 77.00, 57.25 73.80 03/28/2025 08:07:59 77.01, 57.36 73.81 3.08 37
57 03/28/2025 08:57:54 -76.98,-135.01 106.24 03/28/2025 08:57:19 -76.99,-135.01 106.22 1.64 35
58 03/28/2025 09:47:13 76.99, 32.63 73.76 03/28/2025 09:46:38 77.01, 32.71 73.78 3.05 35
59 03/28/2025 10:36:31 -76.97,-159.63 106.28 03/28/2025 10:35:58 -77.00,-159.67 106.25 3.04 33
60 03/28/2025 11:25:50 76.98, 8.01 73.73 03/28/2025 11:25:18 76.96, 7.88 73.71 3.56 32
61 03/28/2025 12:15:09 -77.01, 175.57 106.26 03/28/2025 12:14:37 -77.00, 175.68 106.27 2.82 32
62 03/28/2025 13:04:27 76.97, -16.61 73.69 03/28/2025 13:03:57 76.97, -16.77 73.69 3.96 30
63 03/28/2025 13:53:46 -77.00, 150.95 106.30 03/28/2025 13:53:16 -77.00, 151.02 106.30 1.81 30
64 03/28/2025 14:43:05 77.01, -41.41 73.70 03/28/2025 14:42:35 77.02, -41.26 73.71 4.01 30
65 03/28/2025 15:32:23 -76.99, 126.33 106.33 03/28/2025 15:31:55 -77.01, 126.37 106.32 1.73 28
66 03/28/2025 16:21:42 77.00, -66.03 73.67 03/28/2025 16:21:15 76.97, -66.08 73.64 3.52 27
67 03/28/2025 17:11:00 -76.98, 101.71 106.37 03/28/2025 17:10:34 -77.01, 101.71 106.35 2.65 26
68 03/28/2025 18:00:19 76.99, -90.65 73.63 03/28/2025 17:59:54 76.97, -90.74 73.61 2.93 25
69 03/28/2025 18:49:37 -76.98, 77.09 106.41 03/28/2025 18:49:13 -77.01, 77.06 106.37 3.91 24
70 03/28/2025 19:38:56 76.99,-115.28 73.60 03/28/2025 19:38:33 76.98,-115.39 73.59 3.01 23
71 03/28/2025 20:28:15 -77.01, 52.29 106.39 03/28/2025 20:27:52 -77.01, 52.40 106.39 2.86 23
72 03/28/2025 21:17:33 76.98,-139.90 73.56 03/28/2025 21:17:12 76.98,-140.05 73.57 3.70 21
73 03/28/2025 22:06:52 -77.01, 27.67 106.43 03/28/2025 22:06:31 -77.02, 27.75 106.42 2.28 21
74 03/28/2025 22:56:11 77.02,-164.70 73.57 03/28/2025 22:55:51 76.98,-164.70 73.54 3.78 20
75 03/28/2025 23:45:29 -77.00, 3.04 106.46 03/28/2025 23:45:10 -77.02, 3.09 106.44 2.50 19
76 03/29/2025 00:34:48 77.01, 170.68 73.54 03/29/2025 00:34:30 76.98, 170.64 73.52 2.79 18
77 03/29/2025 01:24:06 -76.99, -21.58 106.50 03/29/2025 01:23:49 -77.02, -21.56 106.47 3.36 17
78 03/29/2025 02:13:25 77.00, 146.06 73.50 03/29/2025 02:13:09 76.99, 145.99 73.49 2.30 16
79 03/29/2025 03:02:44 -77.03, -46.38 106.48 03/29/2025 03:02:28 -77.02, -46.22 106.49 4.05 16



Historial Predications of SNOs between AQUA and TERRA
